Overview Statistics Trail Chart Weather Telemetry Raw packets
 

This is the latest recevied weather packets stored in our database for station/object KB7STN. If no packets are shown the sender has not sent any weather packets the latest 10 day(s).

<< 90 91 92 93 94 95 96 >>
Time Temp. Humidity Pressure Rain* Wind** Luminosity Snow
1788033397 19.44° C 76% 1021.9 hPa 0 mm - - -
1788033097 19.44° C 76% 1021.9 hPa 0 mm - - -
1788032797 18.89° C 77% 1022 hPa 0 mm - - -
1788032498 18.89° C 80% 1022.1 hPa 0 mm - - -
1788032197 18.33° C 80% 1022.2 hPa 0 mm - - -
1788031897 17.78° C 82% 1022.4 hPa 0 mm - - -
1788031597 17.78° C 83% 1022.4 hPa 0 mm - - -
1788031297 17.22° C 83% 1022.5 hPa 0 mm - - -
1788030997 17.22° C 84% 1022.5 hPa 0 mm - - -
1788030697 17.22° C 87% 1022.5 hPa 0 mm - - -
1788030397 16.67° C 87% 1022.5 hPa 0 mm - - -
1788030097 16.67° C 87% 1022.6 hPa 0 mm - - -
1788029797 16.11° C 91% 1022.9 hPa 0 mm - - -
1788029497 16.11° C 91% 1023 hPa 0 mm - - -
1788029206 15.56° C 91% 1022.9 hPa 0 mm - - -
1788028897 15.56° C 91% 1023.1 hPa 0 mm - - -
1788028597 15.56° C 92% 1023.1 hPa 0 mm - - -
1788028297 15.56° C 92% 1023.2 hPa 0 mm - - -
1788027997 15.56° C 92% 1023.3 hPa 0 mm - - -
1788027697 15.56° C 91% 1023.3 hPa 0 mm - - -
1788027397 15.56° C 91% 1023.5 hPa 0.25 mm - - -
1788027097 15.56° C 91% 1023.3 hPa 3.05 mm - - -
1788026797 15.56° C 91% 1023.6 hPa 6.35 mm - - -
1788026497 15.56° C 92% 1023.7 hPa 6.35 mm - - -
1788026198 15.56° C 91% 1023.7 hPa 6.35 mm - - -

* Rain latest hour (hover to see other rain measurements)
** Current wind speed in m/s (hover to see current wind gust speed)